Wind_Speed
4 5 4 5 6 6 7 8 9 9 10 10 11 11 12 12 12 12 12 12 13 13 13 13 13 13 14 14 14 14 14 14 14 14 14 14 13 12 12 12 12 12 13 13
6 6 5 6 7 8 9 9 10 11 10 11 12 13 14 14 14 14 14 14 14 15 15 15 15 15 15 15 15 15 15 15 14 14 14 14 13 13 12 12 12 12 12 12
7 7 7 7 8 9 10 11 12 12 13 13 14 15 15 16 16 16 16 16 17 17 17 17 17 17 17 17 17 17 17 17 16 15 15 14 14 13 13 13 12 12 12 12
8 8 8 8 10 10 12 12 13 14 14 15 15 16 16 17 17 18 18 18 18 19 19 19 19 19 19 19 19 19 18 18 18 17 17 16 15 15 14 14 13 13 12 12
10 10 10 11 12 13 14 14 14 15 16 16 16 17 18 19 19 20 20 20 21 21 22 22 22 21 21 21 21 20 20 20 20 19 19 18 17 16 15 15 15 14 14 13
13 13 13 13 13 15 16 16 16 17 18 18 19 20 20 21 22 23 23 23 23 23 23 24 24 24 23 23 23 22 22 22 22 22 21 20 19 18 18 17 16 16 15 15
15 16 17 16 17 17 18 18 19 20 21 21 22 22 23 23 24 25 25 26 26 26 26 26 26 26 26 25 25 25 25 24 24 24 24 23 22 21 20 20 19 18 17 17
19 20 20 21 21 22 22 23 23 24 24 25 25 26 26 26 26 27 28 28 28 28 28 28 28 28 28 28 28 27 27 27 26 26 26 25 25 24 23 22 21 20 20 19
22 23 24 24 25 25 26 27 27 28 29 29 29 30 30 30 30 30 31 30 30 30 31 30 31 31 31 30 31 30 29 29 28 28 28 28 27 26 26 25 24 23 22 21
26 26 27 28 28 29 30 30 31 31 32 32 33 33 33 34 34 33 33 33 33 32 32 32 32 33 33 33 33 33 32 31 31 31 30 30 29 29 28 28 27 26 25 24
30 30 31 31 31 32 32 33 34 34 35 36 36 37 37 37 37 36 36 36 35 35 35 35 35 35 35 35 35 34 34 34 33 33 32 32 32 31 30 30 29 28 27 26
32 34 35 35 35 35 36 36 37 38 39 39 40 40 40 40 39 39 39 39 39 39 39 38 38 37 37 37 37 37 36 36 36 35 35 34 34 33 33 32 32 31 30 29
37 38 39 39 40 40 40 41 41 42 42 43 43 43 43 43 43 43 43 42 42 42 42 42 41 40 40 40 40 40 39 38 38 38 37 37 36 36 35 34 34 33 32 32
41 42 43 43 44 44 45 45 45 45 45 45 46 46 46 46 46 46 46 46 45 45 45 44 44 43 43 43 43 43 42 41 41 40 40 39 39 38 38 37 36 35 35 34
45 46 46 46 47 47 48 48 48 48 48 48 48 49 49 49 49 49 49 49 49 48 48 47 46 45 45 46 46 45 45 44 43 43 42 42 41 40 40 40 39 38 37 36
47 48 49 49 49 50 50 51 51 51 51 51 51 51 52 52 52 51 52 51 51 51 50 49 49 48 48 48 49 48 48 47 46 45 45 44 44 43 42 42 41 40 39 39
49 49 50 51 51 51 52 53 53 53 53 54 54 54 54 54 54 54 54 54 54 53 53 52 51 50 50 49 49 50 49 48 48 47 46 46 45 45 44 43 43 42 41 41
50 51 51 52 52 53 53 54 54 54 55 55 55 55 55 55 56 56 56 56 55 54 53 53 53 52 51 50 49 49 49 48 48 48 47 47 46 46 45 45 44 44 43 43
51 52 52 53 53 54 54 55 55 55 55 56 55 55 55 55 56 56 55 55 54 54 53 53 53 53 52 51 50 49 49 49 48 48 48 48 47 47 46 46 46 45 45 44
52 53 53 54 54 55 56 56 55 55 55 55 55 55 54 55 55 55 55 54 54 54 53 52 51 51 51 50 50 50 50 50 49 49 49 49 48 48 47 47 46 46 45 45
53 53 54 54 55 55 56 56 56 55 55 55 55 55 55 55 55 55 55 54 52 52 51 50 49 49 49 48 48 48 49 49 49 49 48 49 48 48 47 47 46 46 45 45
53 53 54 55 55 54 55 55 55 55 55 55 55 55 54 54 53 53 53 53 51 50 49 48 47 47 47 47 47 46 47 47 47 47 47 47 48 47 47 46 45 45 45 45
53 54 54 54 54 54 54 53 53 53 52 53 53 53 53 52 51 50 49 49 48 47 46 45 45 45 45 45 45 45 45 46 46 45 45 45 46 46 45 45 44 44 43 44
54 54 54 53 52 52 51 51 51 51 51 50 50 50 50 48 47 47 46 45 44 43 42 42 41 41 42 43 43 43 43 44 45 45 44 44 44 44 44 43 43 43 43 43
52 52 51 51 50 50 50 50 50 49 48 47 47 46 45 45 44 43 42 42 41 40 39 38 38 38 39 40 40 40 41 41 42 43 43 43 43 43 42 42 42 42 42 41
51 50 50 49 48 48 48 47 47 46 46 45 44 43 43 42 42 40 39 38 38 38 38 36 36 37 37 37 37 37 38 39 39 40 41 41 41 41 41 41 40 41 41 40
46 47 47 46 45 45 45 44 44 43 43 42 41 40 40 39 38 37 36 36 36 36 36 35 35 34 35 35 34 35 36 37 37 36 37 38 39 39 40 40 40 40 40 39
Wind_Direction
253 254 256 267 266 262 263 272 278 282 284 287 288 290 291 292 294 295 293 291 290 289 286 283 282 282 283 287 289 291 294 300 307 314 320 324 326 329 332 336 340 345 349 351
267 267 267 270 272 266 266 272 277 281 284 289 290 289 288 289 291 291 290 288 287 287 287 284 282 281 282 285 287 288 289 292 299 304 309 314 318 320 324 327 331 335 341 345
274 274 273 273 271 268 270 275 280 283 287 289 287 286 286 288 289 288 288 287 285 285 285 284 282 281 281 282 284 286 288 289 291 295 298 302 306 310 313 317 321 325 329 334
274 274 271 272 272 275 278 280 283 286 289 291 289 287 287 287 288 287 286 285 284 283 283 281 280 279 279 280 281 283 285 286 287 289 291 294 297 300 303 307 311 314 317 320
281 281 280 278 279 280 282 285 287 288 290 292 291 291 290 289 289 289 287 284 282 281 280 279 278 278 277 278 279 280 281 282 283 284 286 288 290 293 295 298 302 305 308 310
289 290 291 287 285 286 286 288 290 289 288 288 288 287 288 288 288 287 287 285 283 281 279 278 277 276 275 276 277 278 279 279 280 281 281 283 284 287 289 291 294 298 299 302
289 290 291 292 291 289 289 292 290 289 288 287 286 287 287 286 286 286 286 285 284 283 281 279 277 276 275 275 276 277 277 277 278 278 278 279 280 281 283 285 288 291 292 294
286 288 289 291 292 291 291 291 290 288 288 288 288 288 287 286 286 286 286 285 283 282 281 280 278 276 275 274 273 273 274 275 276 276 276 276 276 277 279 280 282 284 286 288
286 287 288 289 289 289 290 290 290 289 288 288 289 288 287 287 287 287 286 283 282 281 280 279 278 276 275 273 272 272 272 272 273 273 274 274 273 274 276 276 277 279 281 284
284 285 286 286 287 287 288 289 289 289 289 288 288 287 286 286 285 285 284 282 280 279 278 278 277 276 276 274 272 272 271 270 270 271 271 271 271 271 273 273 274 276 277 279
282 284 284 285 285 286 286 286 287 287 287 287 287 286 286 285 284 283 281 280 279 279 278 277 276 275 275 275 272 270 270 270 269 269 269 269 269 269 269 270 271 272 273 274
280 281 282 283 283 284 283 284 284 284 285 285 286 285 284 284 283 282 280 279 278 278 278 277 276 275 274 273 271 269 269 268 268 267 266 266 266 266 266 267 268 269 270 271
279 279 280 281 282 282 282 282 282 283 284 285 285 285 285 284 282 281 280 279 278 277 276 276 275 274 273 272 270 268 267 267 266 266 265 264 264 264 264 265 265 266 267 268
279 279 280 281 281 282 282 282 283 283 283 284 284 284 284 284 283 282 281 279 278 276 275 275 274 273 272 270 269 267 266 266 265 264 264 263 262 262 263 263 263 264 265 266
278 279 280 281 281 282 282 283 283 284 284 284 284 284 283 283 282 282 281 280 278 276 275 273 273 272 271 269 268 265 264 264 263 262 262 261 261 261 261 261 261 262 262 263
278 279 280 280 281 281 282 283 283 284 284 284 283 283 282 281 281 281 281 280 279 277 275 273 271 270 269 268 267 265 263 262 261 261 260 259 259 259 259 260 260 260 261 261
279 280 280 280 281 282 283 283 283 283 283 283 284 283 283 282 281 280 280 279 279 278 276 274 271 269 268 267 266 264 262 260 259 259 259 259 259 258 258 258 258 259 259 260
280 280 280 280 281 281 282 283 283 284 284 284 284 284 284 283 282 281 280 279 278 278 276 274 272 269 267 265 264 262 261 259 258 257 257 258 258 258 257 257 257 257 258 258
280 281 281 282 283 283 284 284 284 285 285 285 285 285 285 284 283 281 280 279 278 277 275 273 271 269 267 264 263 260 259 258 256 255 255 255 255 256 256 255 255 255 256 257
281 282 282 283 284 284 285 284 284 285 285 285 285 284 284 284 283 282 280 279 279 278 276 273 270 268 266 264 262 260 258 257 255 254 254 254 254 254 254 254 253 253 254 254
283 283 283 283 284 284 285 285 285 285 285 285 285 284 284 284 283 282 282 280 278 276 274 271 268 266 264 263 261 259 258 257 256 254 254 254 254 253 253 253 253 253 253 253
283 283 283 283 284 284 285 286 286 286 285 285 285 285 285 285 284 283 282 280 278 275 272 269 266 264 263 261 260 258 256 256 255 254 254 254 254 253 252 252 252 253 253 254
282 283 284 285 284 283 284 285 285 285 285 284 284 284 284 284 284 283 282 279 277 275 273 270 266 263 262 261 259 257 256 254 253 253 253 253 253 252 252 252 252 252 252 252
283 284 285 285 285 284 284 284 284 284 284 284 284 284 284 283 283 283 281 279 277 275 273 271 267 264 262 261 259 258 256 255 252 251 251 251 251 251 250 250 250 250 250 251
284 284 285 285 285 284 284 284 284 284 284 284 284 284 284 284 284 283 280 278 276 273 272 270 267 265 264 262 259 257 256 255 253 251 250 250 249 248 248 249 249 249 250 251
284 284 284 284 284 284 284 283 283 283 282 283 283 283 283 284 283 282 280 279 276 273 270 269 267 265 263 261 258 256 255 254 254 253 251 249 249 247 246 246 247 247 248 249
283 283 283 283 283 284 283 283 283 283 284 283 283 282 282 282 282 281 280 279 277 274 272 270 268 266 264 261 258 254 253 253 254 253 250 248 247 245 244 244 245 246 246 247
Height
5822 5822 5822 5822 5822 5822 5822 5822 5823 5823 5822 5823 5822 5821 5821 5820 5820 5819 5819 5818 5817 5816 5815 5815 5814 5814 5813 5812 5810 5809 5808 5806 5804 5802 5800 5798 5795 5793 5790 5788 5785 5783 5780 5778
5820 5820 5820 5820 5820 5820 5820 5819 5819 5819 5819 5819 5818 5818 5817 5817 5816 5816 5815 5814 5813 5812 5812 5811 5810 5810 5809 5808 5807 5805 5804 5803 5801 5799 5797 5795 5793 5791 5788 5786 5784 5782 5779 5777
5818 5818 5818 5818 5818 5817 5817 5816 5816 5816 5816 5815 5814 5813 5813 5813 5812 5811 5811 5810 5809 5808 5807 5806 5806 5805 5804 5803 5802 5801 5800 5798 5797 5796 5794 5792 5790 5788 5786 5784 5782 5780 5778 5775
5815 5816 5815 5817 5814 5814 5813 5813 5812 5812 5811 5811 5810 5809 5808 5808 5807 5806 5806 5805 5804 5803 5802 5801 5801 5800 5799 5798 5797 5796 5795 5794 5792 5791 5790 5788 5786 5785 5783 5781 5779 5777 5775 5773
5811 5811 5811 5812 5811 5809 5809 5809 5808 5807 5807 5806 5805 5804 5803 5802 5801 5801 5800 5799 5798 5797 5796 5795 5795 5794 5793 5792 5791 5791 5790 5789 5787 5786 5785 5783 5782 5780 5779 5777 5776 5774 5772 5770
5807 5806 5806 5808 5807 5805 5805 5804 5803 5802 5801 5801 5800 5799 5799 5797 5795 5794 5793 5792 5791 5791 5789 5788 5788 5787 5787 5786 5785 5784 5783 5782 5781 5780 5779 5778 5777 5775 5774 5773 5771 5770 5768 5767
5802 5801 5801 5801 5801 5800 5800 5800 5798 5796 5795 5794 5793 5793 5792 5790 5789 5787 5786 5785 5783 5783 5782 5781 5780 5779 5779 5778 5778 5777 5776 5775 5775 5774 5773 5772 5771 5770 5769 5767 5766 5765 5764 5762
5796 5796 5797 5795 5794 5794 5793 5791 5790 5789 5787 5786 5785 5784 5783 5782 5781 5779 5778 5776 5775 5774 5773 5772 5771 5771 5770 5770 5769 5769 5768 5767 5767 5766 5765 5764 5764 5763 5762 5761 5760 5759 5758 5757
5791 5791 5789 5788 5787 5786 5784 5783 5782 5780 5779 5778 5776 5775 5773 5772 5771 5770 5768 5767 5766 5765 5764 5763 5762 5761 5761 5760 5760 5759 5759 5759 5758 5757 5757 5756 5756 5755 5755 5754 5753 5753 5752 5751
5782 5782 5780 5779 5778 5777 5775 5774 5772 5771 5769 5768 5767 5765 5763 5762 5761 5759 5758 5757 5756 5755 5754 5753 5752 5751 5750 5750 5750 5749 5749 5749 5749 5748 5748 5747 5747 5746 5746 5746 5745 5745 5744 5744
5774 5773 5771 5770 5768 5767 5765 5764 5762 5760 5758 5757 5755 5754 5752 5751 5749 5748 5746 5746 5745 5744 5743 5742 5741 5740 5739 5738 5738 5738 5738 5738 5738 5738 5737 5737 5737 5737 5737 5737 5736 5736 5736 5735
5764 5763 5760 5759 5757 5756 5754 5753 5751 5749 5747 5745 5743 5741 5740 5738 5737 5735 5734 5733 5732 5732 5731 5730 5729 5729 5727 5726 5726 5726 5726 5726 5726 5726 5726 5726 5726 5727 5726 5727 5727 5726 5726 5726
5752 5750 5749 5747 5746 5744 5742 5740 5739 5737 5735 5733 5730 5728 5726 5725 5723 5722 5720 5719 5718 5718 5717 5716 5716 5716 5715 5713 5713 5713 5713 5714 5714 5714 5714 5714 5715 5715 5715 5716 5716 5716 5716 5716
5739 5737 5735 5734 5732 5730 5728 5726 5725 5723 5721 5719 5716 5714 5712 5710 5708 5707 5705 5704 5703 5702 5702 5701 5701 5701 5700 5699 5698 5698 5699 5700 5700 5701 5701 5701 5702 5702 5703 5704 5704 5704 5705 5705
5725 5722 5721 5719 5717 5715 5713 5712 5710 5708 5706 5703 5701 5699 5696 5695 5693 5691 5690 5688 5686 5686 5686 5685 5685 5685 5684 5683 5683 5683 5684 5684 5685 5686 5686 5687 5688 5689 5690 5691 5692 5692 5693 5694
5710 5708 5705 5704 5702 5700 5698 5696 5694 5692 5689 5687 5685 5682 5680 5678 5676 5675 5673 5671 5669 5668 5668 5667 5667 5668 5667 5666 5666 5667 5667 5668 5668 5670 5671 5672 5673 5674 5676 5677 5678 5679 5680 5681
5694 5692 5690 5688 5686 5684 5681 5679 5677 5674 5672 5669 5667 5665 5663 5660 5659 5657 5655 5653 5651 5650 5649 5648 5648 5648 5648 5648 5648 5649 5650 5650 5652 5653 5655 5656 5658 5659 5661 5662 5664 5665 5667 5668
5677 5676 5673 5671 5669 5667 5665 5662 5659 5657 5654 5651 5649 5646 5644 5641 5639 5637 5636 5634 5632 5631 5630 5629 5628 5628 5629 5629 5630 5631 5632 5633 5635 5636 5638 5640 5642 5643 5645 5647 5649 5651 5652 5653
5661 5659 5657 5654 5652 5650 5647 5645 5642 5639 5636 5633 5630 5627 5625 5622 5619 5617 5615 5614 5613 5612 5611 5609 5609 5609 5610 5611 5611 5612 5614 5615 5617 5619 5621 5623 5625 5627 5629 5631 5633 5635 5637 5639
5644 5642 5640 5637 5635 5632 5629 5626 5623 5621 5618 5614 5611 5609 5606 5604 5601 5598 5596 5595 5593 5591 5591 5590 5590 5590 5591 5592 5593 5595 5596 5598 5600 5602 5604 5606 5609 5611 5613 5615 5617 5620 5622 5624
5627 5625 5622 5620 5617 5614 5611 5608 5605 5603 5600 5596 5593 5590 5588 5585 5582 5580 5577 5576 5575 5572 5571 5571 5571 5572 5573 5574 5575 5577 5579 5581 5583 5585 5587 5589 5592 5594 5597 5599 5602 5604 5606 5608
5609 5607 5604 5602 5599 5597 5594 5591 5587 5584 5581 5578 5575 5572 5569 5567 5564 5562 5559 5557 5555 5554 5553 5553 5553 5554 5555 5556 5558 5559 5562 5564 5566 5568 5570 5573 5575 5578 5581 5583 5586 5588 5591 5593
5592 5589 5587 5584 5581 5579 5577 5573 5570 5567 5564 5561 5558 5554 5551 5549 5546 5544 5542 5540 5538 5537 5536 5536 5536 5537 5538 5539 5541 5543 5545 5547 5549 5552 5554 5557 5559 5562 5565 5568 5571 5573 5575 5578
5575 5572 5570 5567 5564 5561 5559 5556 5553 5550 5547 5544 5541 5538 5535 5532 5530 5527 5525 5523 5522 5521 5520 5520 5520 5520 5521 5523 5524 5526 5529 5531 5533 5536 5538 5541 5543 5546 5549 5552 5555 5558 5560 5563
5558 5555 5553 5550 5548 5545 5542 5539 5537 5534 5531 5529 5526 5523 5520 5517 5515 5513 5510 5508 5507 5506 5506 5506 5506 5506 5506 5507 5509 5511 5513 5515 5517 5520 5523 5525 5528 5531 5534 5537 5540 5543 5546 5548
5541 5539 5537 5534 5531 5529 5526 5523 5521 5518 5516 5514 5511 5508 5506 5503 5500 5498 5497 5495 5493 5493 5492 5492 5492 5492 5492 5493 5495 5496 5498 5501 5503 5505 5508 5511 5514 5517 5520 5523 5526 5529 5532 5535
5526 5523 5521 5519 5516 5513 5511 5508 5506 5504 5501 5499 5497 5495 5492 5490 5488 5486 5484 5483 5481 5480 5480 5479 5479 5479 5479 5480 5482 5483 5485 5487 5490 5491 5494 5497 5500 5503 5506 5510 5513 5516 5520 5523